Location: Newark
(48.1333°N, 17.1000°E)
Time: 14:06:27
(UTC+00:00)

N. Korean satellite - Visible Passes

Search period start: 17 January 2021 00:00
Search period end: 27 January 2021 00:00
Orbit: 453 x 502 km, 97.2° (Epoch: 16 January)

Date Brightness Start Highest point End Pass type
(mag) Time Alt. Az. Time Alt. Az. Time Alt. Az.
17 Jan 9.0 03:38:00 10° NE 03:40:47 21° E 03:43:30 10° SE visible
17 Jan 7.3 05:11:03 10° N 05:14:07 28° WNW 05:17:08 10° SW visible
18 Jan 10.0 03:13:00 10° ENE 03:13:58 11° E 03:14:55 10° ESE visible
18 Jan 6.4 04:44:12 10° N 04:47:40 57° WNW 04:51:05 10° SSW visible
19 Jan 6.8 04:17:37 10° NNE 04:21:07 65° E 04:24:33 10° S visible
19 Jan 8.5 05:52:51 10° NW 05:53:56 11° WNW 05:55:00 10° WNW visible
19 Jan 9.8 16:30:14 10° SW 16:32:38 16° W 16:35:00 10° NW visible
20 Jan 8.4 03:51:20 10° NNE 03:54:28 30° E 03:57:33 10° SSE visible
20 Jan 7.8 05:24:58 10° NNW 05:27:37 20° WNW 05:30:13 10° WSW visible
20 Jan 8.8 16:02:35 10° SSW 16:05:53 31° W 16:09:10 10° NNW visible
21 Jan 9.5 03:25:33 10° NE 03:27:42 15° E 03:29:49 10° SE visible
21 Jan 6.9 04:57:56 10° N 05:01:13 38° WNW 05:04:26 10° SW visible
22 Jan 6.3 04:31:12 10° NNE 04:34:43 84° WNW 04:38:09 10° SSW visible
22 Jan 10.1 16:45:03 10° WSW 16:46:21 12° W 16:47:39 10° WNW visible
23 Jan 7.6 04:04:44 10° NNE 04:08:06 44° E 04:11:23 10° S visible
23 Jan 8.2 05:39:03 10° NNW 05:41:04 15° WNW 05:43:03 10° W visible
23 Jan 9.5 16:16:39 10° SSW 16:19:33 22° W 16:22:27 10° NW visible
24 Jan 9.0 03:38:37 10° NE 03:41:23 21° E 03:44:05 10° SE visible
24 Jan 7.4 05:11:44 10° N 05:14:43 27° WNW 05:17:39 10° SW visible
25 Jan 9.9 03:13:36 10° ENE 03:14:33 11° E 03:15:30 10° ESE visible
25 Jan 6.4 04:44:50 10° N 04:48:14 55° WNW 04:51:36 10° SSW visible
26 Jan 6.7 04:18:13 10° NNE 04:21:40 66° ESE 04:25:04 10° S visible
26 Jan 9.8 16:30:57 10° SW 16:33:13 16° W 16:35:29 10° NW visible
